Location: Colebrook
(42.0017°N, 73.0973°W)
Time: 05:14:43
(UTC-04:00)

Explorer 11/Cluster Stage 4 - All Passes

Search period start: 21 October 2021 00:00
Search period end: 31 October 2021 00:00
Orbit: 467 x 1256 km, 28.8° (Epoch: 20 October)

Date Brightness Start Highest point End Pass type
(mag) Time Alt. Az. Time Alt. Az. Time Alt. Az.
21 Oct - 01:36:43 10° WSW 01:43:16 27° SSW 01:49:30 10° SE night (unlit)
21 Oct - 03:27:39 10° SW 03:31:13 14° SSW 03:34:39 10° S night (unlit)
21 Oct - 20:05:24 10° SSE 20:07:14 11° SSE 20:09:08 10° SE visible
21 Oct - 21:49:11 10° SW 21:55:02 25° SSE 22:01:18 10° ESE visible
21 Oct - 23:36:33 10° WSW 23:43:22 31° S 23:50:21 10° ESE night (unlit)
22 Oct - 01:25:21 10° WSW 01:31:46 26° SSW 01:37:59 10° SE night (unlit)
22 Oct - 03:16:45 10° SW 03:19:43 12° SSW 03:22:36 10° S night (unlit)
22 Oct - 19:53:14 10° S 19:55:45 12° SSE 19:58:24 10° SE visible
22 Oct - 21:37:43 10° SW 21:43:32 25° SSE 21:49:52 10° ESE visible
22 Oct - 23:25:10 10° WSW 23:31:52 31° S 23:38:51 10° ESE night (unlit)
23 Oct - 01:14:02 10° WSW 01:20:15 24° SSW 01:26:23 10° SSE night (unlit)
23 Oct - 03:06:13 10° SW 03:08:12 11° SSW 03:10:08 10° SSW night (unlit)
23 Oct - 19:41:22 10° S 19:44:16 13° SSE 19:47:22 10° SE visible
23 Oct - 21:26:20 10° SW 21:32:04 26° SSE 21:38:24 10° ESE visible
23 Oct - 23:13:50 10° WSW 23:20:23 31° S 23:27:18 10° SE night (unlit)
24 Oct - 01:02:46 10° WSW 01:08:44 23° SSW 01:14:43 10° SSE night (unlit)
24 Oct - 19:29:41 10° S 19:32:49 14° SSE 19:36:12 10° SE visible
24 Oct - 21:15:00 10° SW 21:20:36 26° SSE 21:26:54 10° ESE visible
24 Oct - 23:02:34 10° WSW 23:08:54 30° S 23:15:43 10° SE night (unlit)
25 Oct - 00:51:35 10° WSW 00:57:13 21° SSW 01:02:57 10° SSE night (unlit)
25 Oct - 19:18:08 10° S 19:21:24 15° SSE 19:24:56 10° ESE visible
25 Oct - 21:03:42 10° SW 21:09:10 27° S 21:15:21 10° ESE visible
25 Oct - 22:51:19 10° WSW 22:57:25 28° S 23:04:05 10° SE night (unlit)
26 Oct - 00:40:29 10° WSW 00:45:42 19° SSW 00:51:05 10° SSE night (unlit)
26 Oct - 19:06:41 10° S 19:09:58 15° SSE 19:13:37 10° ESE visible
26 Oct - 20:52:28 10° SW 20:57:44 26° S 21:03:47 10° ESE visible
26 Oct - 22:40:08 10° WSW 22:45:58 27° S 22:52:23 10° SE night (unlit)
27 Oct - 00:29:28 10° WSW 00:34:13 17° SSW 00:39:06 10° SSE night (unlit)
27 Oct - 18:55:18 10° SSW 18:58:35 16° SSE 19:02:15 10° ESE visible
27 Oct - 20:41:17 10° SW 20:46:20 26° S 20:52:12 10° ESE visible
27 Oct - 22:29:00 10° WSW 22:34:31 25° S 22:40:40 10° SE visible
28 Oct - 00:18:38 10° SW 00:22:43 15° SSW 00:26:58 10° S night (unlit)
28 Oct - 18:43:59 10° SSW 18:47:13 16° SSE 18:50:50 10° SE visible
28 Oct - 20:30:07 10° SW 20:34:57 25° S 20:40:34 10° ESE visible
28 Oct - 22:17:56 10° WSW 22:23:05 23° S 22:28:52 10° SE visible
29 Oct - 00:08:01 10° SW 00:11:14 13° SSW 00:14:34 10° S night (unlit)
29 Oct - 18:32:44 10° SSW 18:35:52 16° SSE 18:39:25 10° SE visible
29 Oct - 20:19:02 10° SW 20:23:36 24° S 20:28:56 10° SE visible
29 Oct - 22:06:56 10° WSW 22:11:41 21° S 22:17:00 10° SSE visible
29 Oct - 23:57:58 10° SW 23:59:46 11° SSW 00:01:36 10° S night (unlit)
30 Oct - 18:21:32 10° SSW 18:24:33 16° SSE 18:27:58 10° SE visible
30 Oct - 20:07:58 10° SW 20:12:16 23° S 20:17:16 10° SE visible
30 Oct - 21:56:01 10° SW 22:00:17 19° SSW 22:05:04 10° SSE visible
